Regional Weather Roundup
Issued by NWS Wakefield, VA

Home | Current Version | Previous Version | Graphics & Text | Print | Product List | Glossary On
Versions: 1 2 3 4 5 6 7 8 9 10 11 12 13 14 15 16 17 18 19 20 21 22 23 24 25 26 27 28 29 30 31 32 33 34 35 36 37 38 39 40 41 42 43 44 45 46 47 48 49 50
000
ASUS41 KAKQ 282210
RWRAKQ

REGIONAL WEATHER ROUNDUP
NATIONAL WEATHER SERVICE WAKEFIELD VA
600 PM EDT MON JUL 28 2014

Note: "fair" indicates few or no clouds below 12,000 feet with no
significant weather and/or obstructions to visibility. * = Denotes
station may not report precipitation (e.g., rain,snow,etc.),
thunder or fog.

VAZ042-051-052>054-056-282300-
NORTHERN VIRGINIA

CITY           SKY/WX    TMP DP  RH WIND       PRES   REMARKS
WASH NATIONAL  PTSUNNY   83  55  38 W22G28    29.71R
DULLES         PTSUNNY   79  55  43 W16G28    29.73R
FORT BELVOIR   MOSUNNY   82  58  44 W14       29.72R
QUANTICO       MOSUNNY   83  55  38 NW20      29.73R
FREDERICKSBRG* SUNNY     83  55  37 W14G25    29.73R
STAFFORD*      MOSUNNY   82  56  41 W13G18    29.77R
WARRENTON      MOSUNNY   80  64  57 W12G20    29.74R
CULPEPER*      SUNNY    N/A N/A N/A W14G20    29.76R
MANASSAS*      NOT AVBL
LEESBURG*      PTSUNNY   77  61  57 W12G20    29.75R
WINCHESTER     CLOUDY    73  55  53 W17G24    29.77R
$$

VAZ048-049-060>072-079>083-282300-
CENTRAL AND SOUTH CENTRAL VIRGINIA...AND NORTH CENTRAL NORTH CAROLINA

CITY           SKY/WX    TMP DP  RH WIND       PRES   REMARKS
RICHMOND       MOSUNNY   86  55  34 W20G30    29.74R
CHESTERFIELD*  MOCLDY    84  55  37 W16       29.77R
HANOVER        MOSUNNY   84  55  36 W14       29.76R
TAPPAHANNOCK*  MOSUNNY   84  49  29 W13G20    29.73R
CHARLOTTSVILLE MOSUNNY   79  56  45 W9        29.79R
ORANGE*        SUNNY     79  55  44 W12G23    29.78R
LOUISA*        MOSUNNY   81  57  44 W13G20    29.75S
FARMVILLE*     SUNNY     82  55  39 W10       29.77S
SOUTH HILL*    MOSUNNY   82  59  44 W6        29.84R
ROANOKE RAPIDS NOT AVBL
RALEIGH        MOSUNNY   85  57  38 N8G17     29.79F
$$

VAZ088>098-282300-
SOUTHEAST VIRGINIA

CITY           SKY/WX    TMP DP  RH WIND       PRES   REMARKS
NORFOLK        PTSUNNY   86  61  42 W9G20     29.73R
VIRGINIA BEACH MOSUNNY   86  62  44 W17G23    29.72R
NORFOLK NAVAL  PTSUNNY   85  63  47 W12G17    29.75R
WEST POINT*    MOSUNNY   86  53  31 W13G22    29.73S
NEWPORT NEWS   MOSUNNY   87  58  37 W14G25    29.73S
LANGLEY AFB    PTSUNNY   85  62  46 W13G21    29.72S
FORT EUSTIS    MOSUNNY   84  60  44 W12       29.72R
WILLIAMSBURG*  SUNNY     88  61  40 W9G18     29.74S
FRANKLIN*      MOSUNNY   84  61  45 W13       29.75S
WAKEFIELD      PTSUNNY   83  59  44 W7        29.75S
$$

VAZ020-022-025-037-045-282300-
WESTERN AND SOUTHWEST VIRGINIA

CITY           SKY/WX    TMP DP  RH WIND       PRES   REMARKS
STAUNTON*      CLOUDY    74  53  46 W13G18    29.85R
HOT SPRINGS VA CLOUDY    58  49  70 W15G23    29.96S
LYNCHBURG      CLOUDY    79  58  48 W8        29.84S
DANVILLE       PTSUNNY   83  56  39 NW13G22   29.82S
MARTINSVILLE   CLOUDY    82  56  41 NW8       29.88S
ROANOKE        PTSUNNY   76  55  48 NW15G23   29.88R
BLACKSBURG     PTSUNNY   72  61  68 NW9G16    29.95R
DUBLIN*        PTSUNNY   73  57  57 W12G18    29.95R
MARION*        PTSUNNY  N/A N/A N/A W15G22    29.99
HILLSVILLE*    CLOUDY    69  55  60 NW13G21   29.96S
RICHLANDS*     PTCLDY    70  57  64 NW13G18   29.99S
WISE*          CLOUDY    68  55  64 NW5       30.02S
ABINGDON*      CLOUDY    74  59  59 N9        29.98R
$$

MDZ021>025-VAZ099-100-282300-
SOUTHERN MARYLAND AND THE DELMARVA PENINSULA

CITY           SKY/WX    TMP DP  RH WIND       PRES   REMARKS
PATUXENT RIVER PTSUNNY   83  55  38 W17G23    29.69R
BAY BRIDGE APT   N/A     81  55  41 W14G22    29.68R
LEONARDTOWN    MOSUNNY   79  55  44 W6        29.72R
DOVER          MOSUNNY   81  60  48 W16G24    29.65R
GEORGETOWN     MOSUNNY   83  58  42 W8        29.68R
EASTON         MOSUNNY   82  59  44 NW13G18   29.72R
CAMBRIDGE      MOSUNNY   82  55  39 W9        29.69R
SALISBURY      NOT AVBL
OCEAN CITY     PTSUNNY   83  61  47 W12       29.68R
WALLOPS ISLAND PTSUNNY   84  62  47 NW8       29.70R
ACCOMACK*        N/A     82  61  47 W8        29.71R
$$

NCZ012>017-030>032-282300-
EASTERN NORTH CAROLINA

CITY           SKY/WX    TMP DP  RH WIND       PRES   REMARKS
ELIZABETH CITY SUNNY     85  63  47 W12       29.75R
AHOSKIE*       SUNNY     83  60  45 W5        29.77R
EDENTON*       SUNNY     85  64  48 W10       29.76R
CURRITUCK*     SUNNY     88  60  38 W14       29.75R
KILL DEVIL HLS SUNNY     86  67  53 W8G16     29.73S
MANTEO         NOT AVBL
CAPE HATTERAS  MOSUNNY   82  79  90 SW8       29.77S FOG
GOLDSBORO      SUNNY     89  67  47 NW8       29.74S
WASHINGTON     SUNNY     87  65  49 N6        29.75S
GREENVILLE     SUNNY     88  66  48 N8        29.79S
NEW BERN       PTSUNNY   77  71  82 CALM      29.77S
WILMINGTON     TSTM      77  73  87 SW18G37   29.81R VSB 3/4
$$

VAZ048-282300-
ELSEWHERE

CITY           SKY/WX    TMP DP  RH WIND       PRES   REMARKS
HARRISBURG PA  CLOUDY    75  59  57 N24G33    29.67R
BALTIMORE      PTSUNNY   82  57  42 W18G29    29.68R
ANNAPOLIS      MOSUNNY   82  57  42 W15G23    29.68R
ANDREWS AFB    MOSUNNY   82  57  43 W24G30    29.70R
WILMINGTON DE  MOSUNNY   81  59  47 W23G29    29.65R
PHILADELPHIA   MOSUNNY   82  58  43 W18G26    29.63R
WILDWOOD NJ*   CLOUDY    81  61  50 W12G17    29.67R
ATLANTIC CITY  MOSUNNY   83  58  42 W14G26    29.63R
HENDERSON NC   SUNNY     84  56  38 NW3       29.80S
GREENSBORO     MOSUNNY   84  54  35 NW17      29.84S
ROCKY MOUNT    MOSUNNY   86  61  42 NW9       29.78R
FAYETTEVILLE   SUNNY     93  59  31 W14       29.75S
CHARLOTTE      MOSUNNY   84  54  35 NW9       29.85S
$$

VAZ100-282300-
MARINE

STATION/POSITION TIME  TEMP    WIND        PRES    WAVE   SWELL
                       AIR SEA DIR/SP/G            HT/PER HT/PER
                 (UTC) (F)     (DEG/KT/KT) (MB)    (FT/S) (FT/S)
44066 TX TWR #4  2200   77 75  250/ 17/ 19 1002.3R   5/ 6   2/12
CAPE MAY NJ      2200   80 80  280/ 15/ 19 1003.9R
LEWES DE         2200   81 73  290/ 16/ 21 1004.3R
15NM E FENWICK I 2200   78 74              1004.8R   4/ 7
OCEAN-CITY-INLET 2200   83 76  280/ 13/ 18 1004.5S
WACHAPREAGUE VA  2200   85 84  250/  4/  7 1005.8S
THOMAS POINT MD  2200   81 79  270/ 18/ 21 1005.6R
GOOSES REEF MD   2200   81     290/ 12/ 17 1005.8R
COVE POINT MD    2200   81     300/  7/ 12 1005.4R
SOLOMONS ISLAND  2200      81                N/A
BISHOPS HEAD MD  2200   82 82  300/ 16/ 18 1005.2R
PINEY POINT MD   2200          310/ 16/ 20   N/A
POTOMAC MD       2200   83     310/ 14/ 17 1004.6R
CAMBRIDGE MD     2200   81 80  270/ 11/ 18 1005.1S
LEWISETTA VA     2200   84 81  280/ 14/ 19 1005.6R
RAPPAHANNOCK LGT 2200          260/ 12/ 13 1006.4S
STINGRAY PT      2200   83     270/ 10/ 12 1006.7S
YORK RVR RNG VA  2200   83     280/ 18/ 20 1005.5S
YORKTOWN VA      2200   84 81  250/ 13/ 20 1006.0S
JAMESTOWN VA     2200   83     300/ 14/ 19   N/A
DOMINION TERM VA 2200   83     290/ 14/ 17 1006.8R
KIPTOPEKE VA     2200      83  300/ 17/ 21   N/A
CHES BAY BRIDGE  2200   82 80  260/ 16/ 18 1005.9S
CAPE HENRY VA    2200   84     270/ 11/ 18 1005.2S
WILLOUBY STN VA  2200          280/ 19/ 20 1005.9R
S CRANEY ISL VA  2200          280/ 10/ 16 1006.8R
CAPE HENRY BUOY  2200      78                N/A     3/ 8
1ST LANDING BUOY 2200   83     280/ 16/ 19 1006.4R
CAPE CHARLES BUO 2200      75                N/A     3/ 9
OFFSHORE WE BUOY 2200      79                N/A     3/ 6
64NM E OF VA BCH 2200   81 79  240/ 12/ 14 1006.2S   4/ 7   3/ 7
DUCK PIER NC     2200   85 59  270/ 17/ 19 1006.6R
44056 DUCK FRF   2200                        N/A     1/ 9
OREGON INLET NC  2200   87 83  270/  8/ 12 1007.3R
HATTERAS NC      2200   82 82  230/  8/ 13 1008.2F
DIAMOND SHLS NC  2200          VRB 14/ 16  1007.7F   4/ 6   2/ 7
CAPE LOOKOUT NC  2100   84     220/ 11/ 14 1007.6F
$$



USA.gov is the U.S. government's official web portal to all federal, state and local government web resources and services.